Weather History for KTQE - June, 2013

Change the Weather History Date:

Friday, June 14, 2013

  Actual Average Record
Temperature  
Mean Temperature 74 °F -  
Max Temperature 87 °F 85 °F 101 °F (1979)
Min Temperature 62 °F 61 °F 46 °F (1969)
Cooling Degree Days 9    
Growing Degree Days 24 (Base 50)    
Moisture  
Dew Point 63 °F    
Average Humidity 71    
Maximum Humidity 90    
Minimum Humidity 45    
Precipitation  
Precipitation 0.67 in - - ()
Sea Level Pressure  
Sea Level Pressure 29.88 in    
Wind  
Wind Speed 13 mph (SSE)    
Max Wind Speed 36 mph    
Max Gust Speed 46 mph    
Visibility 8 miles    
Events Fog , Rain , Thunderstorm    
Averages and records for this station are not official NWS values.
T = Trace of Precipitation, MM = Missing Value Source: NWS Daily Summary

Daily Weather History Graph

Daily Weather History Graph

Search for Another Location

Airport or City:

Trip Planner

Search our weather history database for the weather conditions in past years. The results will help you decide how hot, cold, wet, or windy it might be!

Date:

Astronomy

Jun. 14, 2013 Rise Set
Actual Time 5:49 AM CDT 9:00 PM CDT
Civil Twilight 5:15 AM CDT 9:35 PM CDT
Nautical Twilight 4:31 AM CDT 10:19 PM CDT
Astronomical Twilight 3:38 AM CDT 11:11 PM CDT
Moon 11:29 AM CDT (6/14) 12:03 AM CDT (6/14)
Length of Visible Light 16h 19m
Length of Day
15h 11m
Waxing Crescent, 30% of the Moon is Illuminated
Jun 14
Waxing Crescent
Jun 16
First Quarter
Jun 23
Full
Jun 29
Last Quarter
Jul 8
New

Hourly Weather History & Observations

Time (CDT) Temp. Heat Index Dew Point Humidity Pressure Visibility Wind Dir Wind Speed Gust Speed Precip Events Conditions
12:54 AM 62.1 °F - 57.9 °F 86% 30.01 in 10.0 mi Calm Calm - N/A   Partly Cloudy
1:54 AM 64.0 °F - 60.1 °F 87% 30.01 in 10.0 mi Calm Calm - N/A   Overcast
2:54 AM 64.0 °F - 60.1 °F 87% 30.00 in 6.0 mi North 4.6 mph - 0.02 in Rain Light Rain
3:54 AM 64.0 °F - 60.1 °F 87% 29.94 in 10.0 mi South 4.6 mph - 0.01 in   Clear
4:54 AM 62.1 °F - 59.0 °F 90% 29.93 in 10.0 mi South 4.6 mph - N/A   Clear
5:54 AM 62.1 °F - 59.0 °F 90% 29.95 in 10.0 mi Calm Calm - N/A   Clear
6:54 AM 66.9 °F - 59.0 °F 76% 29.93 in 10.0 mi ESE 11.5 mph - N/A   Partly Cloudy
7:33 AM 69.8 °F - 59.0 °F 68% 29.95 in 10.0 mi SE 16.1 mph - N/A Thunderstorm Mostly Cloudy
7:54 AM 66.9 °F - 60.1 °F 79% 29.93 in 6.0 mi SE 11.5 mph - 0.00 in Rain , Thunderstorm Light Thunderstorms and Rain
8:11 AM 68.0 °F - 60.8 °F 78% 29.96 in 10.0 mi SE 10.4 mph - 0.00 in   Mostly Cloudy
8:54 AM 70.0 °F - 61.0 °F 73% 29.92 in 10.0 mi SE 10.4 mph - 0.00 in   Mostly Cloudy
9:54 AM 75.0 °F - 63.0 °F 66% 29.86 in 10.0 mi SE 24.2 mph 31.1 mph 0.01 in   Clear
10:54 AM 77.0 °F - 63.0 °F 62% 29.85 in 10.0 mi SE 27.6 mph 35.7 mph N/A   Clear
11:54 AM 78.1 °F - 63.0 °F 60% 29.88 in 10.0 mi SE 24.2 mph 33.4 mph N/A   Partly Cloudy
12:54 PM 80.1 °F 81.7 °F 64.0 °F 58% 29.84 in 10.0 mi SSE 26.5 mph 34.5 mph N/A   Clear
1:07 PM 78.8 °F - 64.4 °F 61% 29.88 in 9.0 mi SSE 25.3 mph 32.2 mph N/A Thunderstorm Clear
1:54 PM 77.0 °F - 66.0 °F 69% 29.84 in 9.0 mi SSE 23.0 mph 32.2 mph 0.00 in Rain , Thunderstorm Light Rain
2:10 PM 80.6 °F 82.7 °F 66.2 °F 61% 29.86 in 9.0 mi SSE 24.2 mph 33.4 mph 0.00 in   Clear
2:54 PM 84.9 °F 87.6 °F 66.9 °F 55% 29.82 in 10.0 mi SSE 23.0 mph 32.2 mph 0.00 in   Clear
3:54 PM 86.0 °F 88.8 °F 66.9 °F 53% 29.81 in 9.0 mi SE 23.0 mph 28.8 mph N/A   Clear
4:54 PM 84.9 °F 87.6 °F 66.9 °F 55% 29.80 in 10.0 mi SE 20.7 mph - N/A   Mostly Cloudy
5:54 PM 84.0 °F 86.3 °F 66.0 °F 55% 29.77 in 10.0 mi SE 26.5 mph 32.2 mph N/A   Partly Cloudy
6:54 PM 82.0 °F 83.8 °F 64.9 °F 56% 29.74 in 10.0 mi SE 24.2 mph 34.5 mph N/A   Clear
7:54 PM 79.0 °F - 64.9 °F 62% 29.79 in 10.0 mi ESE 19.6 mph - N/A   Partly Cloudy
8:29 PM 78.8 °F - 64.4 °F 61% 29.82 in 10.0 mi ESE 19.6 mph - N/A Thunderstorm Clear
8:54 PM 73.0 °F - 68.0 °F 84% 29.94 in 1.0 mi West 35.7 mph 46.0 mph 0.14 in Rain , Thunderstorm Heavy Thunderstorms and Rain
9:01 PM 69.8 °F - 66.2 °F 88% 29.99 in 0.5 mi West 29.9 mph 46.0 mph 0.16 in Fog , Rain , Thunderstorm Heavy Thunderstorms and Rain
9:09 PM 68.0 °F - 64.4 °F 88% 29.96 in 0.5 mi WNW 24.2 mph 38.0 mph 0.39 in Fog , Rain , Thunderstorm Heavy Thunderstorms and Rain
9:18 PM 69.8 °F - 64.4 °F 83% 29.91 in 1.0 mi WNW 25.3 mph 41.4 mph 0.48 in Rain , Thunderstorm Heavy Thunderstorms and Rain
9:24 PM 69.8 °F - 64.4 °F 83% 29.86 in 3.0 mi NW 19.6 mph 32.2 mph 0.48 in Rain , Thunderstorm Light Rain
9:54 PM 80.1 °F 80.4 °F 57.0 °F 45% 29.79 in 10.0 mi West 35.7 mph 43.7 mph 0.48 in Rain Light Rain
10:51 PM 75.2 °F - 60.8 °F 61% 29.85 in 10.0 mi South 17.3 mph - 0.01 in Rain Light Rain
10:54 PM 73.9 °F - 62.1 °F 66% 29.81 in 10.0 mi South 19.6 mph - 0.01 in Rain Light Rain
11:54 PM 72.0 °F - 63.0 °F 73% 29.71 in 10.0 mi SSE 16.1 mph - 0.00 in   Clear